Regional Weather Roundup
Issued by NWS

Home | Current Version | Previous Version | Graphics & Text | Print | Product List | Glossary Off
Versions: 1 2 3 4 5 6 7 8 9 10 11 12 13 14 15 16 17 18 19 20 21 22 23 24 25 26 27 28 29 30 31 32 33 34 35 36 37 38 39 40 41 42 43 44 45 46 47 48 49 50

000
ASUS43 KFSD 221602
RWRSD

WEATHER ROUNDUP FOR SOUTH DAKOTA
NATIONAL WEATHER SERVICE SIOUX FALLS SD
1100 AM CDT TUE MAY 22 2018

NOTE: "FAIR" INDICATES FEW OR NO CLOUDS BELOW 12,000 FEET WITH NO
SIGNIFICANT WEATHER AND/OR OBSTRUCTIONS TO VISIBILITY.


SDZ001>005-009-010-012>017-221700-
NORTHWEST AND NORTH CENTRAL SOUTH DAKOTA

CITY           SKY/WX    TMP DP  RH WIND       PRES   REMARKS
BUFFALO          N/A     71  54  54 NE9       29.91F
MOBRIDGE       SUNNY     71  60  68 VRB5      29.93S
$$

SDZ012>016-024>037-041>051-057-063-072>074-221700-
SOUTHWEST AND SOUTH CENTRAL SOUTH DAKOTA

CITY           SKY/WX    TMP DP  RH WIND       PRES   REMARKS
RAPID CTY ARPT SUNNY     71  55  56 VRB3      29.97S
PIERRE         SUNNY     72  61  68 SE9       29.94R
CUSTER         SUNNY     69  38  32 VRB7      30.07S
ELLSWORTH AFB  SUNNY     71  53  53 CALM      29.97S
PHILIP         SUNNY     72  62  71 CALM      29.93S
PINE RIDGE     SUNNY     75  55  49 NE6       29.95F
SPEARFISH      FAIR      68  52  56 VRB3      30.01S
WINNER         FAIR      74  61  63 S13       29.95S
$$

SDZ004>011-016>023-039-040-221700-
NORTHEAST SOUTH DAKOTA

CITY           SKY/WX    TMP DP  RH WIND       PRES   REMARKS
ABERDEEN       SUNNY     76  57  51 S9        29.97F
WATERTOWN      SUNNY     69  58  67 CALM      30.01F
BROOKINGS      SUNNY     70  60  70 SE7       30.02S
SISSETON         N/A     71  58  63 MISG      30.01S
$$

SDZ017-020-022-023-036>040-048>070-221700-
SOUTHEAST SOUTH DAKOTA

CITY           SKY/WX    TMP DP  RH WIND       PRES   REMARKS
SIOUX FALLS    MOSUNNY   72  63  73 SE8       30.00S
HURON          SUNNY     74  61  63 S8        29.96F
CHAMBERLAIN    SUNNY     76  65  66 SE10      29.94F
MITCHELL       SUNNY     76  62  62 SE9       29.96F
YANKTON        SUNNY     72  64  76 SE9       29.97F
$$

ABBREVIATIONS USED IN REMARKS
   TC - TEMPERATURE IN CELSIUS
  WCI - WIND CHILL INDEX
   HX - HEAT INDEX
  VSB - VISIBILITY




USA.gov is the U.S. government's official web portal to all federal, state and local government web resources and services.